Pasco, WA

9:26 PM PDT on September 19, 2017 (GMT -0700)
Tri-Cities

Weather History for KPSC - June, 2013

Change the Weather History Date:

Sunday, June 16, 2013

  Actual Average Record
Temperature  
Mean Temperature 74 °F 68 °F  
Max Temperature 94 °F 83 °F 106 °F (1961)
Min Temperature 54 °F 52 °F 41 °F (2001)
Degree Days  
Heating Degree Days 0 1  
Month to date heating degree days 9 24  
Since 1 June heating degree days 9 24  
Since 1 July heating degree days 4716 5014  
Cooling Degree Days 9 3  
Month to date cooling degree days 55 43  
Year to date cooling degree days 101 76  
Since 1 June cooling degree days 55 43  
Growing Degree Days 24 (Base 50)    
Moisture  
Dew Point 47 °F    
Average Humidity 47    
Maximum Humidity 77    
Minimum Humidity 17    
Precipitation  
Precipitation 0.00 in 0.03 in 0.55 in (1948)
Month to date precipitation T 0.45  
Year to date precipitation 1.88 4.70  
Snow  
Snow 0.00 in - - ()
Snow Depth 0.00 in    
Sea Level Pressure  
Sea Level Pressure 29.90 in    
Wind  
Wind Speed 6 mph (NW)    
Max Wind Speed 21 mph    
Max Gust Speed 26 mph    
Visibility 10 miles    
Events      
T = Trace of Precipitation, MM = Missing Value Source: NWS Daily Summary

Daily Weather History Graph

Daily Weather History Graph

Search for Another Location

Airport or City:

Trip Planner

Search our weather history database for the weather conditions in past years. The results will help you decide how hot, cold, wet, or windy it might be!

Date:

Astronomy

Jun. 16, 2013 Rise Set
Actual Time 5:03 AM PDT 8:50 PM PDT
Civil Twilight 4:25 AM PDT 9:29 PM PDT
Nautical Twilight 3:32 AM PDT 10:22 PM PDT
Astronomical Twilight 2:18 AM PDT 11:36 PM PDT
Moon 1:10 PM PDT (6/16) 12:34 AM PDT (6/16)
Length of Visible Light 17h 04m
Length of Day
15h 46m
Waxing Crescent, 51% of the Moon is Illuminated
Jun 16
Waxing Crescent
Jun 23
Full
Jun 29
Last Quarter
Jul 8
New
Jul 15
First Quarter

Hourly Weather History & Observations

Time (PDT) Temp. Dew Point Humidity Pressure Visibility Wind Dir Wind Speed Gust Speed Precip Events Conditions
12:53 AM 63.0 °F 46.0 °F 54% 29.90 in 10.0 mi East 4.6 mph - N/A   Clear
1:53 AM 59.0 °F 48.0 °F 67% 29.90 in 10.0 mi NW 4.6 mph - N/A   Clear
2:53 AM 60.1 °F 46.9 °F 62% 29.90 in 10.0 mi NW 3.5 mph - N/A   Clear
3:53 AM 57.9 °F 46.9 °F 67% 29.90 in 10.0 mi NW 3.5 mph - N/A   Clear
4:53 AM 57.0 °F 46.9 °F 69% 29.91 in 10.0 mi NNW 5.8 mph - N/A   Clear
5:53 AM 55.9 °F 48.0 °F 75% 29.94 in 10.0 mi NNW 3.5 mph - N/A   Clear
6:53 AM 62.1 °F 48.0 °F 60% 29.95 in 10.0 mi Calm Calm - N/A   Clear
7:53 AM 68.0 °F 48.0 °F 49% 29.96 in 10.0 mi North 8.1 mph - N/A   Clear
8:53 AM 71.1 °F 46.9 °F 42% 29.96 in 10.0 mi Variable 3.5 mph - N/A   Clear
9:53 AM 73.0 °F 45.0 °F 37% 29.96 in 10.0 mi Calm Calm - N/A   Clear
10:53 AM 78.1 °F 46.0 °F 32% 29.95 in 10.0 mi Variable 3.5 mph - N/A   Clear
11:53 AM 82.0 °F 48.9 °F 31% 29.93 in 10.0 mi Variable 4.6 mph - N/A   Clear
12:53 PM 86.0 °F 48.0 °F 27% 29.91 in 10.0 mi North 4.6 mph - N/A   Clear
1:53 PM 89.1 °F 45.0 °F 22% 29.88 in 10.0 mi NNW 8.1 mph - N/A   Clear
2:53 PM 90.0 °F 43.0 °F 19% 29.86 in 10.0 mi NW 9.2 mph - N/A   Clear
3:53 PM 91.9 °F 44.1 °F 19% 29.85 in 10.0 mi WNW 11.5 mph - N/A   Clear
4:53 PM 93.0 °F 43.0 °F 18% 29.83 in 10.0 mi North 10.4 mph - N/A   Partly Cloudy
5:53 PM 91.0 °F 45.0 °F 20% 29.82 in 10.0 mi NNW 10.4 mph - N/A   Partly Cloudy
6:53 PM 89.1 °F 48.0 °F 24% 29.82 in 10.0 mi NNW 8.1 mph - N/A   Clear
7:53 PM 86.0 °F 48.0 °F 27% 29.83 in 10.0 mi WNW 4.6 mph - N/A   Clear
8:53 PM 84.0 °F 45.0 °F 25% 29.84 in 10.0 mi West 13.8 mph - N/A   Partly Cloudy
9:53 PM 81.0 °F 48.0 °F 31% 29.87 in 10.0 mi West 20.7 mph - N/A   Clear
10:53 PM 78.1 °F 50.0 °F 37% 29.91 in 10.0 mi SW 8.1 mph - N/A   Clear
11:53 PM 75.9 °F 52.0 °F 43% 29.91 in 10.0 mi West 11.5 mph - N/A   Clear